Location: ???????????
(54.5822°N, 39.1075°E)
Time: 12:01:40
(UTC+00:00)

Cosmos 1833 Rocket - Pass Details

Date: 19 May 2025
Orbit: 831 x 839 km, 71.0° (Epoch: 14 June)

Event Time Altitude Azimuth Distance (km) Brightness Sun altitude
Rises 20:26:32 0° 246° (WSW) 3,388 5.7 -14.6°
Reaches altitude 10° 20:29:12 10° 255° (WSW) 2,457 5.1 -14.7°
Maximum altitude 20:34:19 34° 320° (NW) 1,355 4.4 -14.8°
Drops below altitude 10° 20:39:27 10° 25° (NNE) 2,466 6.0 -14.9°
Sets 20:42:08 0° 35° (NE) 3,403 6.6 -15.0°
